﻿測定場所 (Monitoring sites),日付 (Measurement date),時間 (Measurement time),線量率 最大値 (max) μGy/h,線量率 最小値 (min) μGy/h,線量率 平均値 (average) μGy/h,
八王子 (Hachioji),2016-09-04,23:01～24:00,0.0336,0.0293,0.0316,
八王子 (Hachioji),2016-09-04,22:01～23:00,0.0338,0.0291,0.0311,
八王子 (Hachioji),2016-09-04,21:01～22:00,0.0335,0.0290,0.0310,
八王子 (Hachioji),2016-09-04,20:01～21:00,0.0332,0.0287,0.0309,
八王子 (Hachioji),2016-09-04,19:01～20:00,0.0331,0.0293,0.0310,
八王子 (Hachioji),2016-09-04,18:01～19:00,0.0332,0.0294,0.0310,
八王子 (Hachioji),2016-09-04,17:01～18:00,0.0323,0.0287,0.0308,
八王子 (Hachioji),2016-09-04,16:01～17:00,0.0334,0.0292,0.0311,
八王子 (Hachioji),2016-09-04,15:01～16:00,0.0345,0.0297,0.0315,
八王子 (Hachioji),2016-09-04,14:01～15:00,0.0333,0.0294,0.0313,
八王子 (Hachioji),2016-09-04,13:01～14:00,0.0330,0.0294,0.0313,
八王子 (Hachioji),2016-09-04,12:01～13:00,0.0338,0.0287,0.0310,
八王子 (Hachioji),2016-09-04,11:01～12:00,0.0332,0.0296,0.0313,
八王子 (Hachioji),2016-09-04,10:01～11:00,0.0337,0.0296,0.0316,
八王子 (Hachioji),2016-09-04,09:01～10:00,0.0343,0.0298,0.0318,
八王子 (Hachioji),2016-09-04,08:01～09:00,0.0345,0.0302,0.0322,
八王子 (Hachioji),2016-09-04,07:01～08:00,0.0346,0.0298,0.0322,
八王子 (Hachioji),2016-09-04,06:01～07:00,0.0349,0.0308,0.0330,
八王子 (Hachioji),2016-09-04,05:01～06:00,0.0389,0.0323,0.0349,
八王子 (Hachioji),2016-09-04,04:01～05:00,0.0415,0.0349,0.0377,
八王子 (Hachioji),2016-09-04,03:01～04:00,0.0390,0.0320,0.0345,
八王子 (Hachioji),2016-09-04,02:01～03:00,0.0354,0.0299,0.0331,
八王子 (Hachioji),2016-09-04,01:01～02:00,0.0341,0.0307,0.0325,
八王子 (Hachioji),2016-09-04,00:01～01:00,0.0357,0.0308,0.0329,
八王子 (Hachioji),2016-09-03,23:01～24:00,0.0343,0.0302,0.0319,
八王子 (Hachioji),2016-09-03,22:01～23:00,0.0360,0.0313,0.0331,
八王子 (Hachioji),2016-09-03,21:01～22:00,0.0351,0.0307,0.0332,
八王子 (Hachioji),2016-09-03,20:01～21:00,0.0345,0.0311,0.0326,
八王子 (Hachioji),2016-09-03,19:01～20:00,0.0341,0.0296,0.0322,
八王子 (Hachioji),2016-09-03,18:01～19:00,0.0346,0.0295,0.0321,
八王子 (Hachioji),2016-09-03,17:01～18:00,0.0336,0.0292,0.0318,
八王子 (Hachioji),2016-09-03,16:01～17:00,0.0340,0.0301,0.0319,
八王子 (Hachioji),2016-09-03,15:01～16:00,0.0343,0.0309,0.0323,
八王子 (Hachioji),2016-09-03,14:01～15:00,0.0335,0.0291,0.0319,
八王子 (Hachioji),2016-09-03,13:01～14:00,0.0338,0.0297,0.0320,
八王子 (Hachioji),2016-09-03,12:01～13:00,0.0341,0.0304,0.0321,
八王子 (Hachioji),2016-09-03,11:01～12:00,0.0352,0.0303,0.0321,
八王子 (Hachioji),2016-09-03,10:01～11:00,0.0340,0.0305,0.0322,
八王子 (Hachioji),2016-09-03,09:01～10:00,0.0337,0.0305,0.0322,
八王子 (Hachioji),2016-09-03,08:01～09:00,0.0335,0.0296,0.0319,
八王子 (Hachioji),2016-09-03,07:01～08:00,0.0345,0.0302,0.0322,
八王子 (Hachioji),2016-09-03,06:01～07:00,0.0341,0.0298,0.0324,
八王子 (Hachioji),2016-09-03,05:01～06:00,0.0345,0.0309,0.0325,
八王子 (Hachioji),2016-09-03,04:01～05:00,0.0342,0.0305,0.0322,
八王子 (Hachioji),2016-09-03,03:01～04:00,0.0345,0.0298,0.0319,
八王子 (Hachioji),2016-09-03,02:01～03:00,0.0343,0.0303,0.0319,
八王子 (Hachioji),2016-09-03,01:01～02:00,0.0346,0.0303,0.0322,
八王子 (Hachioji),2016-09-03,00:01～01:00,0.0336,0.0294,0.0317,
八王子 (Hachioji),2016-09-02,23:01～24:00,0.0345,0.0294,0.0319,
八王子 (Hachioji),2016-09-02,22:01～23:00,0.0333,0.0301,0.0319,
八王子 (Hachioji),2016-09-02,21:01～22:00,0.0345,0.0298,0.0319,
八王子 (Hachioji),2016-09-02,20:01～21:00,0.0342,0.0300,0.0319,
八王子 (Hachioji),2016-09-02,19:01～20:00,0.0337,0.0289,0.0319,
八王子 (Hachioji),2016-09-02,18:01～19:00,0.0334,0.0292,0.0320,
八王子 (Hachioji),2016-09-02,17:01～18:00,0.0345,0.0301,0.0321,
八王子 (Hachioji),2016-09-02,16:01～17:00,0.0339,0.0305,0.0320,
八王子 (Hachioji),2016-09-02,15:01～16:00,0.0345,0.0301,0.0322,
八王子 (Hachioji),2016-09-02,14:01～15:00,0.0344,0.0307,0.0324,
八王子 (Hachioji),2016-09-02,13:01～14:00,0.0345,0.0303,0.0325,
八王子 (Hachioji),2016-09-02,12:01～13:00,0.0351,0.0304,0.0328,
八王子 (Hachioji),2016-09-02,11:01～12:00,0.0350,0.0303,0.0330,
八王子 (Hachioji),2016-09-02,10:01～11:00,0.0347,0.0311,0.0328,
八王子 (Hachioji),2016-09-02,09:01～10:00,0.0353,0.0309,0.0329,
八王子 (Hachioji),2016-09-02,08:01～09:00,0.0352,0.0309,0.0331,
八王子 (Hachioji),2016-09-02,07:01～08:00,0.0360,0.0311,0.0337,
八王子 (Hachioji),2016-09-02,06:01～07:00,0.0367,0.0320,0.0342,
八王子 (Hachioji),2016-09-02,05:01～06:00,0.0358,0.0317,0.0340,
八王子 (Hachioji),2016-09-02,04:01～05:00,0.0364,0.0319,0.0341,
八王子 (Hachioji),2016-09-02,03:01～04:00,0.0359,0.0322,0.0339,
八王子 (Hachioji),2016-09-02,02:01～03:00,0.0366,0.0313,0.0341,
八王子 (Hachioji),2016-09-02,01:01～02:00,0.0359,0.0315,0.0338,
八王子 (Hachioji),2016-09-02,00:01～01:00,0.0360,0.0321,0.0338,
八王子 (Hachioji),2016-09-01,23:01～24:00,0.0358,0.0319,0.0339,
八王子 (Hachioji),2016-09-01,22:01～23:00,0.0347,0.0310,0.0327,
八王子 (Hachioji),2016-09-01,21:01～22:00,0.0347,0.0291,0.0318,
八王子 (Hachioji),2016-09-01,20:01～21:00,0.0339,0.0299,0.0321,
八王子 (Hachioji),2016-09-01,19:01～20:00,0.0341,0.0288,0.0319,
八王子 (Hachioji),2016-09-01,18:01～19:00,0.0355,0.0288,0.0318,
八王子 (Hachioji),2016-09-01,17:01～18:00,0.0338,0.0293,0.0317,
八王子 (Hachioji),2016-09-01,16:01～17:00,0.0345,0.0301,0.0321,
八王子 (Hachioji),2016-09-01,15:01～16:00,0.0336,0.0299,0.0316,
八王子 (Hachioji),2016-09-01,14:01～15:00,0.0336,0.0297,0.0317,
八王子 (Hachioji),2016-09-01,13:01～14:00,0.0339,0.0297,0.0320,
八王子 (Hachioji),2016-09-01,12:01～13:00,0.0344,0.0291,0.0319,
八王子 (Hachioji),2016-09-01,11:01～12:00,0.0337,0.0299,0.0318,
八王子 (Hachioji),2016-09-01,10:01～11:00,0.0338,0.0298,0.0318,
八王子 (Hachioji),2016-09-01,09:01～10:00,0.0341,0.0301,0.0320,
八王子 (Hachioji),2016-09-01,08:01～09:00,0.0353,0.0312,0.0327,
八王子 (Hachioji),2016-09-01,07:01～08:00,0.0340,0.0303,0.0321,
八王子 (Hachioji),2016-09-01,06:01～07:00,0.0348,0.0301,0.0325,
八王子 (Hachioji),2016-09-01,05:01～06:00,0.0350,0.0303,0.0324,
八王子 (Hachioji),2016-09-01,04:01～05:00,0.0347,0.0303,0.0322,
八王子 (Hachioji),2016-09-01,03:01～04:00,0.0344,0.0300,0.0319,
八王子 (Hachioji),2016-09-01,02:01～03:00,0.0341,0.0301,0.0319,
八王子 (Hachioji),2016-09-01,01:01～02:00,0.0342,0.0300,0.0319,
八王子 (Hachioji),2016-09-01,00:01～01:00,0.0337,0.0300,0.0317,
八王子 (Hachioji),2016-08-31,23:01～24:00,0.0344,0.0294,0.0316,
八王子 (Hachioji),2016-08-31,22:01～23:00,0.0334,0.0290,0.0317,
八王子 (Hachioji),2016-08-31,21:01～22:00,0.0343,0.0293,0.0315,
八王子 (Hachioji),2016-08-31,20:01～21:00,0.0336,0.0298,0.0318,
八王子 (Hachioji),2016-08-31,19:01～20:00,0.0337,0.0296,0.0318,
八王子 (Hachioji),2016-08-31,18:01～19:00,0.0340,0.0296,0.0317,
八王子 (Hachioji),2016-08-31,17:01～18:00,0.0344,0.0298,0.0318,
八王子 (Hachioji),2016-08-31,16:01～17:00,0.0336,0.0294,0.0318,
八王子 (Hachioji),2016-08-31,15:01～16:00,0.0336,0.0295,0.0317,
八王子 (Hachioji),2016-08-31,14:01～15:00,0.0338,0.0295,0.0318,
八王子 (Hachioji),2016-08-31,13:01～14:00,0.0337,0.0303,0.0320,
八王子 (Hachioji),2016-08-31,12:01～13:00,0.0336,0.0298,0.0317,
八王子 (Hachioji),2016-08-31,11:01～12:00,0.0338,0.0298,0.0316,
八王子 (Hachioji),2016-08-31,10:01～11:00,0.0343,0.0297,0.0318,
八王子 (Hachioji),2016-08-31,09:01～10:00,0.0330,0.0296,0.0316,
八王子 (Hachioji),2016-08-31,08:01～09:00,0.0334,0.0302,0.0317,
八王子 (Hachioji),2016-08-31,07:01～08:00,0.0338,0.0289,0.0316,
八王子 (Hachioji),2016-08-31,06:01～07:00,0.0341,0.0298,0.0317,
八王子 (Hachioji),2016-08-31,05:01～06:00,0.0338,0.0293,0.0315,
八王子 (Hachioji),2016-08-31,04:01～05:00,0.0334,0.0296,0.0318,
八王子 (Hachioji),2016-08-31,03:01～04:00,0.0339,0.0296,0.0319,
八王子 (Hachioji),2016-08-31,02:01～03:00,0.0340,0.0293,0.0317,
八王子 (Hachioji),2016-08-31,01:01～02:00,0.0336,0.0292,0.0315,
八王子 (Hachioji),2016-08-31,00:01～01:00,0.0331,0.0296,0.0318,
八王子 (Hachioji),2016-08-30,23:01～24:00,0.0343,0.0304,0.0321,
八王子 (Hachioji),2016-08-30,22:01～23:00,0.0347,0.0304,0.0317,
八王子 (Hachioji),2016-08-30,21:01～22:00,0.0333,0.0294,0.0317,
八王子 (Hachioji),2016-08-30,20:01～21:00,0.0331,0.0294,0.0313,
八王子 (Hachioji),2016-08-30,19:01～20:00,0.0329,0.0289,0.0314,
八王子 (Hachioji),2016-08-30,18:01～19:00,0.0337,0.0297,0.0315,
八王子 (Hachioji),2016-08-30,17:01～18:00,0.0345,0.0303,0.0324,
八王子 (Hachioji),2016-08-30,16:01～17:00,0.0376,0.0318,0.0349,
八王子 (Hachioji),2016-08-30,15:01～16:00,0.0422,0.0329,0.0373,
八王子 (Hachioji),2016-08-30,14:01～15:00,0.0366,0.0323,0.0346,
八王子 (Hachioji),2016-08-30,13:01～14:00,0.0371,0.0309,0.0341,
八王子 (Hachioji),2016-08-30,12:01～13:00,0.0339,0.0290,0.0313,
八王子 (Hachioji),2016-08-30,11:01～12:00,0.0341,0.0301,0.0321,
八王子 (Hachioji),2016-08-30,10:01～11:00,0.0359,0.0316,0.0334,
八王子 (Hachioji),2016-08-30,09:01～10:00,0.0354,0.0311,0.0336,
八王子 (Hachioji),2016-08-30,08:01～09:00,0.0364,0.0320,0.0343,
八王子 (Hachioji),2016-08-30,07:01～08:00,0.0382,0.0341,0.0363,
八王子 (Hachioji),2016-08-30,06:01～07:00,0.0413,0.0341,0.0374,
八王子 (Hachioji),2016-08-30,05:01～06:00,0.0388,0.0317,0.0342,
八王子 (Hachioji),2016-08-30,04:01～05:00,0.0347,0.0308,0.0325,
八王子 (Hachioji),2016-08-30,03:01～04:00,0.0358,0.0313,0.0340,
八王子 (Hachioji),2016-08-30,02:01～03:00,0.0393,0.0320,0.0354,
八王子 (Hachioji),2016-08-30,01:01～02:00,0.0376,0.0338,0.0355,
八王子 (Hachioji),2016-08-30,00:01～01:00,0.0353,0.0309,0.0332,
八王子 (Hachioji),2016-08-29,23:01～24:00,0.0344,0.0301,0.0324,
八王子 (Hachioji),2016-08-29,22:01～23:00,0.0340,0.0295,0.0319,
八王子 (Hachioji),2016-08-29,21:01～22:00,0.0353,0.0296,0.0321,
八王子 (Hachioji),2016-08-29,20:01～21:00,0.0339,0.0290,0.0317,
八王子 (Hachioji),2016-08-29,19:01～20:00,0.0336,0.0291,0.0317,
八王子 (Hachioji),2016-08-29,18:01～19:00,0.0331,0.0291,0.0310,
八王子 (Hachioji),2016-08-29,17:01～18:00,0.0327,0.0294,0.0312,
八王子 (Hachioji),2016-08-29,16:01～17:00,0.0329,0.0292,0.0309,
八王子 (Hachioji),2016-08-29,15:01～16:00,0.0334,0.0290,0.0307,
八王子 (Hachioji),2016-08-29,14:01～15:00,0.0335,0.0285,0.0310,
八王子 (Hachioji),2016-08-29,13:01～14:00,0.0338,0.0294,0.0313,
八王子 (Hachioji),2016-08-29,12:01～13:00,0.0335,0.0292,0.0315,
八王子 (Hachioji),2016-08-29,11:01～12:00,0.0347,0.0299,0.0319,
八王子 (Hachioji),2016-08-29,10:01～11:00,0.0352,0.0304,0.0330,
八王子 (Hachioji),2016-08-29,09:01～10:00,0.0339,0.0298,0.0319,
八王子 (Hachioji),2016-08-29,08:01～09:00,0.0345,0.0302,0.0323,
八王子 (Hachioji),2016-08-29,07:01～08:00,0.0351,0.0308,0.0329,
八王子 (Hachioji),2016-08-29,06:01～07:00,0.0342,0.0297,0.0319,
八王子 (Hachioji),2016-08-29,05:01～06:00,0.0336,0.0294,0.0317,
八王子 (Hachioji),2016-08-29,04:01～05:00,0.0343,0.0297,0.0323,
八王子 (Hachioji),2016-08-29,03:01～04:00,0.0358,0.0310,0.0334,
八王子 (Hachioji),2016-08-29,02:01～03:00,0.0370,0.0323,0.0346,
八王子 (Hachioji),2016-08-29,01:01～02:00,0.0382,0.0338,0.0359,
八王子 (Hachioji),2016-08-29,00:01～01:00,0.0398,0.0337,0.0364,
